Location: St. Louis
(38.6270°N, 90.1994°W)
Time: 11:19:13
(UTC-06:00)

S-56A Canister/Altair - Pass Details

Date: 07 December 2021
Orbit: 634 x 2499 km, 38.9° (Epoch: 26 January)

Event Time Altitude Azimuth Distance (km) Brightness Sun altitude
Rises 22:46:08 0° 244° (WSW) 5,822 12.1 -68.7°
Enters shadow 22:48:06 - 243° (WSW) 5,253 11.8 -69.0°
Reaches altitude 10° 22:50:18 10° 242° (WSW) 4,604 - -69.3°
Maximum altitude 23:02:21 72° 162° (SSE) 1,639 - -70.8°
Drops below altitude 10° 23:10:13 10° 79° (E) 3,104 - -71.7°
Sets 23:12:32 0° 78° (ENE) 3,865 - -71.9°
